Weather in Yefimovka

Russia / Orenburg Oblast     52°12′47″N   52°02′26″E
temp.,
°C
wind,
m/s
gust,
m/s
humid.,
%
clouds,
%
prec.,
mm/h
press.,
hPa
HPBL,
m
28 february, sun
sun2823:000sw5998100 0.6 999423
02:000sw5898100 1.1 999377
05:00−2wnw5698100 2.3 999254
08:00−13nw51094100 0.4 1001314
11:00−13nw6109396 0.5 1003362
14:00−13nw6992100 0.1 1005395
17:00−12nw61092100 0.2 1008448
20:00−14nw599495 0.1 1010336
1 march, mon
mon123:00−14nw499597 0.3 1012273
02:00−15nw489597 0.2 1014234
05:00−16nw369691 0.3 1016132
08:00−16nw479696 0.2 1018240
11:00−17nw469488 0.3 1020236
14:00−16nw459357 0.0 1021259
17:00−16nw479350 0.0 1022292
20:00−20wnw349827 0.0 102333
2 march, tue
tue223:00−21w2310035 0.0 102423
02:00−21wsw349974 0.0 102332
05:00−20sw4510067 0.0 102179
08:00−17ssw6109798 0.0 1018240
11:00−15ssw8129699 0.1 1016321
14:00−9ssw91493100 0.3 1012543
17:00−5sw91494100 0.8 1009761
20:00−3sw81495100 0.7 1007646
3 march, wed
wed323:00−3sw61296100 1.2 1005527
02:00−2sw51097100 0.4 1004385
05:00−2wsw3597100 0.7 1004101
08:00−4wnw2296100 0.0 100323
11:00−4nw3595100 0.0 1004172
14:00−3nw3494100 0.0 1005262
17:00−4nw3595100 0.0 1005303
20:00−4nnw4792100 0.1 1006414
4 march, thu
thu423:00−5nnw489299 0.1 1009401
02:00−9nw459596 0.0 100999
05:00−12wnw449448 0.0 101160
08:00−13w359652 0.0 101276
11:00−10wsw489339 0.0 1013252
14:00−7sw6109017 0.0 1012419
17:00−6sw8148820 0.0 1011505
20:00−5sw91692100 0.1 1009800